AAL790 KDFW-KCOS

Flight info

Callsign AAL790
Flight time 1h 33m
Altitude 38000
Route LOWGN8 ADM MMB UPIRE ZAROS LAA OZZZY5
Aircraft B738/M-SDE2E3FGHIRWXY/LB1

Departure

Time 2026-04-11 03:28
Airport Dallas Fort Worth International Airport (KDFW)

Arrival

Time 2026-04-11 05:02
Airport City of Colorado Springs Municipal Airport (KCOS)
Time Latitude Longitude Altitude Speed Heading
2026-04-11 03:16 32.90775 -97.03884 586 ft 0 kts 226°
2026-04-11 03:21 32.90781 -97.03877 586 ft 4 kts 221°
2026-04-11 03:22 32.90803 -97.03861 586 ft 4 kts 188°
2026-04-11 03:22 32.90825 -97.03862 586 ft 1 kts 161°
2026-04-11 03:24 32.90818 -97.03851 586 ft 5 kts 112°
2026-04-11 03:24 32.90830 -97.03785 586 ft 9 kts 73°
2026-04-11 03:24 32.90837 -97.03702 586 ft 13 kts 90°
2026-04-11 03:24 32.90835 -97.03569 586 ft 17 kts 90°
2026-04-11 03:25 32.90842 -97.03431 586 ft 17 kts 91°
2026-04-11 03:25 32.90850 -97.03315 585 ft 10 kts 51°
2026-04-11 03:25 32.90914 -97.03306 584 ft 12 kts 352°
2026-04-11 03:25 32.91019 -97.03285 579 ft 18 kts 24°
2026-04-11 03:26 32.91141 -97.03273 579 ft 18 kts
2026-04-11 03:26 32.91261 -97.03272 581 ft 17 kts
2026-04-11 03:26 32.91395 -97.03270 581 ft 24 kts 359°
2026-04-11 03:26 32.91553 -97.03248 576 ft 19 kts 59°
2026-04-11 03:27 32.91560 -97.03092 579 ft 19 kts 94°
2026-04-11 03:27 32.91541 -97.02989 582 ft 8 kts 148°
2026-04-11 03:27 32.91422 -97.02988 578 ft 43 kts 180°
2026-04-11 03:27 32.90891 -97.02991 573 ft 108 kts 181°
2026-04-11 03:28 32.89971 -97.02983 658 ft 150 kts 178°
2026-04-11 03:28 32.88853 -97.02999 1091 ft 172 kts 176°
2026-04-11 03:28 32.87621 -97.02977 1709 ft 174 kts 176°
2026-04-11 03:28 32.86413 -97.02945 2342 ft 183 kts 175°
2026-04-11 03:29 32.85064 -97.02811 2525 ft 205 kts 163°
2026-04-11 03:29 32.83679 -97.02154 2787 ft 225 kts 157°
2026-04-11 03:29 32.82205 -97.01426 3428 ft 233 kts 157°
2026-04-11 03:29 32.80706 -97.00693 4163 ft 235 kts 156°
2026-04-11 03:30 32.79192 -96.99890 4870 ft 240 kts 147°
2026-04-11 03:30 32.78032 -96.98471 5632 ft 242 kts 125°
2026-04-11 03:30 32.77276 -96.96651 6300 ft 249 kts 113°
2026-04-11 03:30 32.76673 -96.94706 6984 ft 254 kts 109°
2026-04-11 03:31 32.76487 -96.92605 7504 ft 268 kts 89°
2026-04-11 03:31 32.76600 -96.90368 8124 ft 275 kts 89°
2026-04-11 03:31 32.76696 -96.88067 8775 ft 281 kts 89°
2026-04-11 03:31 32.76942 -96.85749 9520 ft 288 kts 72°
2026-04-11 03:32 32.78000 -96.83720 10250 ft 296 kts 46°
2026-04-11 03:32 32.79793 -96.82382 10532 ft 320 kts 19°
2026-04-11 03:32 32.82041 -96.81755 10730 ft 343 kts 12°
2026-04-11 03:32 32.84441 -96.81207 11113 ft 357 kts 11°
2026-04-11 03:33 32.86910 -96.80763 11762 ft 361 kts
2026-04-11 03:33 32.89420 -96.80762 12580 ft 361 kts 358°
2026-04-11 03:33 32.91948 -96.80847 13284 ft 366 kts 359°
2026-04-11 03:33 32.94503 -96.80895 14055 ft 369 kts 359°
2026-04-11 03:34 32.97020 -96.80944 14674 ft 373 kts 355°
2026-04-11 03:34 32.99560 -96.81789 15455 ft 371 kts 332°
2026-04-11 03:34 33.01729 -96.83461 16170 ft 374 kts 322°
2026-04-11 03:34 33.03786 -96.85388 16789 ft 379 kts 320°
2026-04-11 03:35 33.05839 -96.87389 17396 ft 383 kts 319°
2026-04-11 03:35 33.07902 -96.89415 18084 ft 386 kts 320°
2026-04-11 03:35 33.09994 -96.91453 18680 ft 390 kts 319°
2026-04-11 03:35 33.12112 -96.93496 19299 ft 392 kts 320°
2026-04-11 03:36 33.14239 -96.95532 19945 ft 393 kts 320°
2026-04-11 03:36 33.16381 -96.97575 20521 ft 396 kts 320°
2026-04-11 03:36 33.18519 -96.99610 21107 ft 399 kts 320°
2026-04-11 03:36 33.20719 -97.01704 21706 ft 401 kts 320°
2026-04-11 03:37 33.22905 -97.03785 22295 ft 403 kts 320°
2026-04-11 03:37 33.25073 -97.05850 22833 ft 405 kts 320°
2026-04-11 03:37 33.27283 -97.07958 23386 ft 408 kts 320°
2026-04-11 03:37 33.29503 -97.10076 23892 ft 410 kts 320°
2026-04-11 03:38 33.31738 -97.12211 24327 ft 412 kts 320°
2026-04-11 03:38 33.33978 -97.14353 24770 ft 414 kts 320°
2026-04-11 03:38 33.36237 -97.16513 25211 ft 416 kts 320°
2026-04-11 03:38 33.38502 -97.18680 25632 ft 418 kts 319°
2026-04-11 03:39 33.40779 -97.20860 26043 ft 420 kts 319°
2026-04-11 03:39 33.43120 -97.22983 26446 ft 425 kts 327°
2026-04-11 03:39 33.45873 -97.24327 26823 ft 433 kts 343°
2026-04-11 03:39 33.48885 -97.24717 27241 ft 441 kts 359°
2026-04-11 03:40 33.51956 -97.24448 27638 ft 444 kts
2026-04-11 03:40 33.55040 -97.24082 27978 ft 448 kts
2026-04-11 03:40 33.58152 -97.23692 28303 ft 451 kts
2026-04-11 03:40 33.61287 -97.23307 28655 ft 453 kts
2026-04-11 03:41 33.64430 -97.22938 29007 ft 455 kts
2026-04-11 03:41 33.67591 -97.22582 29351 ft 457 kts
2026-04-11 03:41 33.70768 -97.22235 29671 ft 460 kts
2026-04-11 03:41 33.73961 -97.21892 29990 ft 462 kts
2026-04-11 03:42 33.77170 -97.21550 30201 ft 465 kts
2026-04-11 03:42 33.80405 -97.21205 30458 ft 467 kts
2026-04-11 03:42 33.83636 -97.20858 30837 ft 466 kts
2026-04-11 03:42 33.86856 -97.20511 31299 ft 462 kts
2026-04-11 03:43 33.90046 -97.20166 31762 ft 459 kts
2026-04-11 03:43 33.93226 -97.19823 32146 ft 458 kts
2026-04-11 03:43 33.96399 -97.19481 32498 ft 458 kts
2026-04-11 03:43 33.99566 -97.19140 32864 ft 457 kts
2026-04-11 03:44 34.02723 -97.18799 33288 ft 454 kts
2026-04-11 03:44 34.05868 -97.18459 33719 ft 452 kts
2026-04-11 03:44 34.08995 -97.18121 34106 ft 450 kts
2026-04-11 03:44 34.12116 -97.17784 34416 ft 450 kts
2026-04-11 03:45 34.15231 -97.17447 34702 ft 450 kts
2026-04-11 03:45 34.18339 -97.17325 34955 ft 443 kts 348°
2026-04-11 03:45 34.21230 -97.18256 35211 ft 433 kts 333°
2026-04-11 03:45 34.23822 -97.20016 35521 ft 424 kts 319°
2026-04-11 03:46 34.26015 -97.22437 35806 ft 420 kts 312°
2026-04-11 03:46 34.28036 -97.24921 36043 ft 421 kts 311°
2026-04-11 03:46 34.30074 -97.27476 36230 ft 422 kts 311°
2026-04-11 03:46 34.32109 -97.30036 36512 ft 421 kts 311°
2026-04-11 03:47 34.34142 -97.32581 36822 ft 419 kts 311°
2026-04-11 03:47 34.36176 -97.35112 37084 ft 419 kts 311°
2026-04-11 03:47 34.38210 -97.37632 37318 ft 419 kts 311°
2026-04-11 03:47 34.40252 -97.40153 37523 ft 419 kts 311°
2026-04-11 03:48 34.42299 -97.42677 37760 ft 419 kts 311°
2026-04-11 03:48 34.44339 -97.45191 38023 ft 418 kts 311°
2026-04-11 03:48 34.46379 -97.47706 38201 ft 419 kts 311°
2026-04-11 03:48 34.48431 -97.50237 38176 ft 422 kts 311°
2026-04-11 03:49 34.52530 -97.55299 38183 ft 419 kts 311°
2026-04-11 03:49 34.56601 -97.60333 38189 ft 416 kts 311°
2026-04-11 03:50 34.60645 -97.65342 38196 ft 415 kts 311°
2026-04-11 03:50 34.64676 -97.70344 38197 ft 414 kts 311°
2026-04-11 03:51 34.68700 -97.75344 38198 ft 414 kts 311°
2026-04-11 03:51 34.72705 -97.80329 38198 ft 415 kts 311°
2026-04-11 03:52 34.76752 -97.85373 38198 ft 417 kts 311°
2026-04-11 03:52 34.80808 -97.90435 38200 ft 419 kts 311°
2026-04-11 03:53 34.84877 -97.95521 38209 ft 420 kts 311°
2026-04-11 03:53 34.88962 -98.00634 38222 ft 422 kts 310°
2026-04-11 03:54 34.93054 -98.05764 38221 ft 423 kts 310°
2026-04-11 03:54 34.96459 -98.10039 38223 ft 423 kts 310°
2026-04-11 03:55 35.00560 -98.15194 38224 ft 423 kts 310°
2026-04-11 03:55 35.04653 -98.20349 38208 ft 423 kts 310°
2026-04-11 03:56 35.08751 -98.25516 38202 ft 422 kts 310°
2026-04-11 03:56 35.12828 -98.30665 38189 ft 421 kts 310°
2026-04-11 03:57 35.16894 -98.35808 38164 ft 420 kts 310°
2026-04-11 03:57 35.20947 -98.40943 38189 ft 419 kts 310°
2026-04-11 03:58 35.24991 -98.46075 38179 ft 419 kts 310°
2026-04-11 03:58 35.29030 -98.51208 38183 ft 418 kts 310°
2026-04-11 03:59 35.33033 -98.56303 38200 ft 417 kts 310°
2026-04-11 03:59 35.37054 -98.61428 38215 ft 417 kts 310°
2026-04-11 04:00 35.41074 -98.66561 38224 ft 417 kts 310°
2026-04-11 04:00 35.45088 -98.71694 38255 ft 417 kts 310°
2026-04-11 04:01 35.49106 -98.76839 38242 ft 418 kts 310°
2026-04-11 04:01 35.53129 -98.81999 38176 ft 419 kts 310°
2026-04-11 04:02 35.57159 -98.87176 38169 ft 420 kts 310°
2026-04-11 04:02 35.61195 -98.92369 38167 ft 421 kts 310°
2026-04-11 04:03 35.65237 -98.97578 38159 ft 421 kts 310°
2026-04-11 04:03 35.69282 -99.02798 38165 ft 422 kts 310°
2026-04-11 04:04 35.73329 -99.08030 38169 ft 422 kts 309°
2026-04-11 04:04 35.77376 -99.13268 38158 ft 422 kts 309°
2026-04-11 04:05 35.81429 -99.18525 38165 ft 423 kts 309°
2026-04-11 04:05 35.85453 -99.23751 38154 ft 423 kts 309°
2026-04-11 04:06 35.89502 -99.29018 38192 ft 423 kts 309°
2026-04-11 04:06 35.93551 -99.34293 38159 ft 423 kts 309°
2026-04-11 04:07 35.97587 -99.39560 38151 ft 422 kts 309°
2026-04-11 04:07 36.01613 -99.44822 38151 ft 421 kts 309°
2026-04-11 04:08 36.05630 -99.50080 38160 ft 420 kts 309°
2026-04-11 04:08 36.09632 -99.55330 38177 ft 420 kts 309°
2026-04-11 04:09 36.13642 -99.60597 38198 ft 420 kts 309°
2026-04-11 04:09 36.17647 -99.65865 38206 ft 420 kts 309°
2026-04-11 04:10 36.21647 -99.71135 38217 ft 420 kts 309°
2026-04-11 04:10 36.25614 -99.76371 38223 ft 419 kts 309°
2026-04-11 04:11 36.29605 -99.81648 38221 ft 419 kts 309°
2026-04-11 04:11 36.33590 -99.86922 38222 ft 419 kts 309°
2026-04-11 04:12 36.37428 -99.92337 38208 ft 417 kts 306°
2026-04-11 04:12 36.41117 -99.97891 38187 ft 416 kts 305°
2026-04-11 04:13 36.44793 -100.03443 38175 ft 416 kts 305°
2026-04-11 04:13 36.48485 -100.08986 38159 ft 416 kts 305°
2026-04-11 04:14 36.52174 -100.14512 38151 ft 415 kts 305°
2026-04-11 04:14 36.55865 -100.20045 38160 ft 415 kts 305°
2026-04-11 04:15 36.61369 -100.28313 38167 ft 415 kts 305°
2026-04-11 04:16 36.65056 -100.33864 38169 ft 416 kts 305°
2026-04-11 04:16 36.68743 -100.39423 38171 ft 416 kts 305°
2026-04-11 04:17 36.72432 -100.44996 38178 ft 417 kts 305°
2026-04-11 04:17 36.76124 -100.50580 38176 ft 417 kts 305°
2026-04-11 04:18 36.79816 -100.56176 38183 ft 418 kts 305°
2026-04-11 04:18 36.83507 -100.61777 38187 ft 418 kts 304°
2026-04-11 04:19 36.87200 -100.67394 38209 ft 418 kts 304°
2026-04-11 04:19 36.90894 -100.73020 38233 ft 419 kts 304°
2026-04-11 04:20 36.94585 -100.78652 38252 ft 419 kts 304°
2026-04-11 04:20 36.98281 -100.84300 38296 ft 419 kts 304°
2026-04-11 04:21 37.01955 -100.89924 38281 ft 420 kts 304°
2026-04-11 04:21 37.05670 -100.95620 38273 ft 419 kts 304°
2026-04-11 04:22 37.09328 -101.01238 38275 ft 418 kts 304°
2026-04-11 04:22 37.13003 -101.06893 38268 ft 418 kts 304°
2026-04-11 04:23 37.16666 -101.12538 38252 ft 417 kts 304°
2026-04-11 04:23 37.20318 -101.18177 38254 ft 416 kts 303°
2026-04-11 04:24 37.23961 -101.23812 38223 ft 416 kts 303°
2026-04-11 04:24 37.27598 -101.29445 38219 ft 415 kts 303°
2026-04-11 04:25 37.31204 -101.35041 38221 ft 415 kts 303°
2026-04-11 04:25 37.34829 -101.40677 38227 ft 414 kts 303°
2026-04-11 04:26 37.38450 -101.46318 38225 ft 415 kts 303°
2026-04-11 04:26 37.42073 -101.51966 38231 ft 415 kts 302°
2026-04-11 04:27 37.45765 -101.57581 38213 ft 418 kts 304°
2026-04-11 04:27 37.49641 -101.63046 38211 ft 418 kts 305°
2026-04-11 04:28 37.53526 -101.68506 38203 ft 419 kts 305°
2026-04-11 04:28 37.57392 -101.73997 38216 ft 419 kts 304°
2026-04-11 04:29 37.61250 -101.79514 38230 ft 420 kts 304°
2026-04-11 04:29 37.65117 -101.85060 38217 ft 421 kts 304°
2026-04-11 04:30 37.68984 -101.90613 38207 ft 422 kts 304°
2026-04-11 04:30 37.72832 -101.96148 38207 ft 422 kts 304°
2026-04-11 04:31 37.73901 -101.97686 38207 ft 422 kts 304°
2026-04-11 04:31 37.77725 -102.03199 38207 ft 422 kts 304°
2026-04-11 04:32 37.81596 -102.08790 38194 ft 422 kts 304°
2026-04-11 04:32 37.85486 -102.14420 37661 ft 428 kts 304°
2026-04-11 04:32 37.87440 -102.17250 37100 ft 426 kts 304°
2026-04-11 04:33 37.89382 -102.20062 36547 ft 423 kts 304°
2026-04-11 04:33 37.91317 -102.22868 35933 ft 423 kts 304°
2026-04-11 04:33 37.93256 -102.25685 35300 ft 424 kts 304°
2026-04-11 04:33 37.95193 -102.28503 34685 ft 425 kts 305°
2026-04-11 04:34 37.97122 -102.31307 34261 ft 421 kts 305°
2026-04-11 04:34 37.99027 -102.34092 33727 ft 415 kts 304°
2026-04-11 04:34 38.00813 -102.36925 33276 ft 409 kts 301°
2026-04-11 04:34 38.02536 -102.39813 32813 ft 411 kts 301°
2026-04-11 04:35 38.04229 -102.42703 32370 ft 415 kts 300°
2026-04-11 04:35 38.05955 -102.45646 31908 ft 413 kts 301°
2026-04-11 04:35 38.07673 -102.48552 31435 ft 410 kts 301°
2026-04-11 04:35 38.09378 -102.51424 31002 ft 406 kts 301°
2026-04-11 04:36 38.11075 -102.54275 30569 ft 403 kts 301°
2026-04-11 04:36 38.12763 -102.57112 30111 ft 400 kts 301°
2026-04-11 04:36 38.14430 -102.59915 29607 ft 396 kts 301°
2026-04-11 04:36 38.16082 -102.62695 29144 ft 392 kts 301°
2026-04-11 04:37 38.17716 -102.65445 28690 ft 388 kts 301°
2026-04-11 04:37 38.19331 -102.68168 28230 ft 384 kts 302°
2026-04-11 04:37 38.20976 -102.70805 28082 ft 375 kts 304°
2026-04-11 04:37 38.22677 -102.73324 27943 ft 379 kts 306°
2026-04-11 04:38 38.24437 -102.75890 27828 ft 390 kts 306°
2026-04-11 04:38 38.26233 -102.78514 27680 ft 397 kts 306°
2026-04-11 04:38 38.28036 -102.81162 27523 ft 394 kts 305°
2026-04-11 04:38 38.29817 -102.83796 27376 ft 391 kts 305°
2026-04-11 04:39 38.31559 -102.86385 27235 ft 389 kts 305°
2026-04-11 04:39 38.33334 -102.89029 27033 ft 389 kts 305°
2026-04-11 04:39 38.35072 -102.91625 26710 ft 391 kts 305°
2026-04-11 04:39 38.36841 -102.94271 26401 ft 393 kts 305°
2026-04-11 04:40 38.38614 -102.96922 26084 ft 390 kts 306°
2026-04-11 04:40 38.40359 -102.99531 25784 ft 384 kts 306°
2026-04-11 04:40 38.42079 -103.02103 25475 ft 379 kts 306°
2026-04-11 04:40 38.43782 -103.04657 25176 ft 377 kts 306°
2026-04-11 04:41 38.45480 -103.07206 24871 ft 376 kts 306°
2026-04-11 04:41 38.47173 -103.09749 24571 ft 375 kts 306°
2026-04-11 04:41 38.48856 -103.12281 24279 ft 374 kts 306°
2026-04-11 04:41 38.49968 -103.13952 24076 ft 373 kts 306°
2026-04-11 04:42 38.51652 -103.16484 23769 ft 374 kts 306°
2026-04-11 04:42 38.53334 -103.19020 23426 ft 375 kts 306°
2026-04-11 04:42 38.55015 -103.21553 23091 ft 372 kts 306°
2026-04-11 04:42 38.56688 -103.24075 22701 ft 370 kts 306°
2026-04-11 04:43 38.58349 -103.26582 22332 ft 368 kts 306°
2026-04-11 04:43 38.59998 -103.29074 21966 ft 366 kts 306°
2026-04-11 04:43 38.61638 -103.31554 21618 ft 364 kts 306°
2026-04-11 04:43 38.63270 -103.34025 21259 ft 363 kts 306°
2026-04-11 04:44 38.64895 -103.36486 20900 ft 362 kts 306°
2026-04-11 04:44 38.66517 -103.38946 20542 ft 360 kts 306°
2026-04-11 04:44 38.68129 -103.41393 20191 ft 359 kts 307°
2026-04-11 04:44 38.69737 -103.43834 19842 ft 358 kts 307°
2026-04-11 04:45 38.71340 -103.46271 19500 ft 357 kts 307°
2026-04-11 04:45 38.72938 -103.48701 19145 ft 356 kts 307°
2026-04-11 04:45 38.74529 -103.51123 18800 ft 355 kts 307°
2026-04-11 04:45 38.76119 -103.53545 18440 ft 355 kts 307°
2026-04-11 04:46 38.77706 -103.55962 18048 ft 354 kts 307°
2026-04-11 04:46 38.79288 -103.58376 17676 ft 352 kts 307°
2026-04-11 04:46 38.80849 -103.60784 17314 ft 349 kts 304°
2026-04-11 04:46 38.81926 -103.63505 17024 ft 339 kts 284°
2026-04-11 04:47 38.82409 -103.66388 16753 ft 334 kts 277°
2026-04-11 04:47 38.82772 -103.69326 16413 ft 332 kts 276°
2026-04-11 04:47 38.83109 -103.72246 16173 ft 328 kts 276°
2026-04-11 04:47 38.83445 -103.75131 15951 ft 325 kts 276°
2026-04-11 04:48 38.83788 -103.78000 15738 ft 327 kts 277°
2026-04-11 04:48 38.84141 -103.80890 15526 ft 330 kts 277°
2026-04-11 04:48 38.84501 -103.83799 15301 ft 330 kts 277°
2026-04-11 04:48 38.84863 -103.86694 15084 ft 327 kts 277°
2026-04-11 04:49 38.85224 -103.89574 14877 ft 326 kts 277°
2026-04-11 04:49 38.85582 -103.92436 14662 ft 324 kts 277°
2026-04-11 04:49 38.85939 -103.95284 14442 ft 323 kts 277°
2026-04-11 04:49 38.86292 -103.98113 14230 ft 318 kts 277°
2026-04-11 04:50 38.86638 -104.00889 14007 ft 311 kts 276°
2026-04-11 04:50 38.86977 -104.03594 13843 ft 303 kts 276°
2026-04-11 04:50 38.87310 -104.06223 13697 ft 295 kts 276°
2026-04-11 04:50 38.87636 -104.08802 13578 ft 291 kts 276°
2026-04-11 04:51 38.87959 -104.11364 13452 ft 292 kts 276°
2026-04-11 04:51 38.88285 -104.13958 13342 ft 297 kts 276°
2026-04-11 04:51 38.88615 -104.16588 13219 ft 299 kts 276°
2026-04-11 04:51 38.88945 -104.19221 13093 ft 298 kts 276°
2026-04-11 04:52 38.89269 -104.21804 12989 ft 296 kts 276°
2026-04-11 04:52 38.89659 -104.24380 12836 ft 296 kts 286°
2026-04-11 04:52 38.90744 -104.26629 12548 ft 300 kts 306°
2026-04-11 04:52 38.92117 -104.28658 12156 ft 302 kts 307°
2026-04-11 04:53 38.93509 -104.30692 11766 ft 303 kts 307°
2026-04-11 04:53 38.94910 -104.32716 11447 ft 302 kts 307°
2026-04-11 04:53 38.96308 -104.34727 11140 ft 301 kts 307°
2026-04-11 04:53 38.97705 -104.36725 10842 ft 300 kts 307°
2026-04-11 04:54 38.99098 -104.38708 10635 ft 295 kts 307°
2026-04-11 04:54 39.00365 -104.40709 10475 ft 282 kts 292°
2026-04-11 04:54 39.00812 -104.43041 10341 ft 259 kts 268°
2026-04-11 04:54 39.00895 -104.45284 10239 ft 244 kts 267°
2026-04-11 04:55 39.00979 -104.47412 10091 ft 235 kts 267°
2026-04-11 04:55 39.01065 -104.49508 10042 ft 234 kts 267°
2026-04-11 04:55 39.01153 -104.51593 10010 ft 233 kts 267°
2026-04-11 04:55 39.01242 -104.53675 10009 ft 234 kts 267°
2026-04-11 04:56 39.01329 -104.55757 10020 ft 234 kts 268°
2026-04-11 04:56 39.01414 -104.57817 9963 ft 225 kts 267°
2026-04-11 04:56 39.01498 -104.59727 9844 ft 210 kts 267°
2026-04-11 04:56 39.01582 -104.61579 9420 ft 209 kts 267°
2026-04-11 04:57 39.01660 -104.63453 9081 ft 210 kts 265°
2026-04-11 04:57 39.01267 -104.65198 9016 ft 204 kts 226°
2026-04-11 04:57 39.00148 -104.66197 9029 ft 200 kts 207°
2026-04-11 04:57 38.98921 -104.67018 9011 ft 197 kts 207°
2026-04-11 04:58 38.97714 -104.67833 9010 ft 195 kts 207°
2026-04-11 04:58 38.96447 -104.68476 8987 ft 198 kts 187°
2026-04-11 04:58 38.95050 -104.68491 8879 ft 204 kts 183°
2026-04-11 04:58 38.93646 -104.68536 8644 ft 200 kts 184°
2026-04-11 04:59 38.92298 -104.68553 8384 ft 188 kts 182°
2026-04-11 04:59 38.91038 -104.68557 8152 ft 176 kts 181°
2026-04-11 04:59 38.89850 -104.68559 7919 ft 165 kts 181°
2026-04-11 04:59 38.88740 -104.68562 7750 ft 153 kts 180°
2026-04-11 05:00 38.87700 -104.68564 7494 ft 147 kts 177°
2026-04-11 05:00 38.86693 -104.68555 7326 ft 145 kts 180°
2026-04-11 05:00 38.85699 -104.68549 7123 ft 143 kts 179°
2026-04-11 05:00 38.84680 -104.68557 6898 ft 149 kts 178°
2026-04-11 05:01 38.83638 -104.68568 6682 ft 150 kts 178°
2026-04-11 05:01 38.82601 -104.68574 6435 ft 151 kts 177°
2026-04-11 05:01 38.81550 -104.68577 6210 ft 151 kts 176°
2026-04-11 05:01 38.80586 -104.68572 6155 ft 114 kts 179°
2026-04-11 05:02 38.80016 -104.68579 6146 ft 50 kts 180°
2026-04-11 05:02 38.79786 -104.68578 6143 ft 29 kts 180°
2026-04-11 05:02 38.79589 -104.68578 6139 ft 27 kts 180°
2026-04-11 05:02 38.79404 -104.68584 6136 ft 26 kts 188°
2026-04-11 05:03 38.79287 -104.68612 6135 ft 24 kts 194°
2026-04-11 05:03 38.79148 -104.68693 6132 ft 16 kts 223°
2026-04-11 05:03 38.79178 -104.68789 6133 ft 15 kts 356°
2026-04-11 05:03 38.79282 -104.68790 6134 ft 15 kts
2026-04-11 05:04 38.79396 -104.68788 6136 ft 17 kts
2026-04-11 05:04 38.79520 -104.68789 6138 ft 20 kts 360°
2026-04-11 05:04 38.79662 -104.68789 6141 ft 20 kts 360°
2026-04-11 05:04 38.79812 -104.68789 6143 ft 24 kts
2026-04-11 05:05 38.80131 -104.68789 6148 ft 22 kts 360°
2026-04-11 05:05 38.80273 -104.68820 6150 ft 18 kts 299°
2026-04-11 05:05 38.80277 -104.68980 6150 ft 18 kts 270°
2026-04-11 05:06 38.80277 -104.69136 6150 ft 17 kts 270°
2026-04-11 05:06 38.80279 -104.69320 6150 ft 24 kts 270°
2026-04-11 05:06 38.80280 -104.69527 6150 ft 23 kts 268°
2026-04-11 05:06 38.80257 -104.69712 6150 ft 20 kts 212°
2026-04-11 05:07 38.80121 -104.69725 6148 ft 19 kts 178°
2026-04-11 05:07 38.80075 -104.69800 6147 ft 12 kts 268°
2026-04-11 05:07 38.80065 -104.69909 6147 ft 13 kts 225°
2026-04-11 05:07 38.79975 -104.69921 6144 ft 14 kts 178°
2026-04-11 05:08 38.79934 -104.69947 6144 ft 5 kts 259°
2026-04-11 05:08 38.79932 -104.69991 6144 ft 5 kts 269°
2026-04-11 05:08 38.79932 -104.70007 6143 ft 0 kts 269°
2026-04-11 05:08 38.79932 -104.70008 6144 ft 0 kts 269°